Theta_e
310 310 311 311 312 312 313 314 314 314 315 316 318 320 321 321 319 310 304 313 317 323 318 303 304 302 302 300 301 298 291 287 289 288 291 295 296 300 301 302 307 315 316 319 330
310 310 311 311 311 312 312 312 312 313 314 316 318 319 320 321 309 298 311 320 321 320 302 300 299 300 299 297 299 296 290 290 294 292 293 295 295 297 299 299 302 308 319 326 330
309 310 311 311 312 312 312 312 313 315 317 319 319 319 320 317 299 297 315 316 319 313 304 303 301 299 296 298 298 296 292 295 296 294 295 295 295 296 296 297 301 304 313 322 325
309 309 310 310 311 311 312 313 314 316 318 319 319 319 320 308 289 300 315 313 316 306 302 300 298 295 293 292 297 292 296 296 297 296 295 294 295 294 295 299 300 300 304 321 324
308 308 309 310 310 311 312 313 315 316 317 318 318 319 305 295 295 303 311 305 302 301 297 297 295 295 292 293 293 292 294 296 296 296 294 295 294 293 294 298 299 299 311 319 323
307 308 308 309 309 310 312 313 314 316 315 317 318 316 298 291 302 300 301 300 299 298 297 297 296 297 294 293 292 293 293 293 294 294 294 293 294 294 297 299 298 297 305 317 321
307 307 308 308 309 310 311 312 313 314 317 315 314 302 297 294 302 302 301 297 298 298 296 299 299 295 295 292 294 293 289 291 292 293 293 294 290 291 298 297 296 296 297 307 318
306 307 308 308 308 309 310 311 312 315 315 314 310 298 292 301 302 301 300 297 298 300 299 299 299 297 294 294 291 288 289 285 291 294 294 293 286 294 296 295 295 295 295 295 300
306 307 307 308 309 308 308 309 311 313 311 307 296 287 283 299 294 298 298 294 295 297 298 299 297 292 291 286 285 285 281 283 286 292 290 290 285 292 295 294 293 293 293 293 295
306 306 307 307 307 307 306 306 306 306 302 298 296 283 286 288 292 295 295 296 293 294 294 292 289 286 286 284 278 280 280 282 282 287 289 286 286 291 294 294 294 292 293 293 293
305 305 306 305 304 304 297 293 290 290 292 288 288 285 288 293 294 289 292 293 292 290 284 287 284 281 283 285 285 283 282 281 284 288 285 284 286 289 292 292 292 293 293 294 295
304 305 305 304 302 301 291 286 288 291 285 291 291 289 290 289 286 286 291 288 287 282 285 283 281 285 287 287 285 283 282 282 285 289 287 286 286 290 292 293 294 294 294 295 296
304 304 304 302 299 291 288 286 292 294 284 284 288 285 286 288 284 283 286 285 284 281 282 281 284 287 285 283 282 282 282 282 282 286 288 284 283 287 291 291 292 292 292 292 292
303 304 303 300 290 286 284 290 291 291 275 278 284 285 286 286 281 286 287 284 282 280 282 280 284 284 282 280 282 280 284 284 284 283 276 284 275 285 289 288 289 291 291 292 292
302 303 301 297 285 284 287 290 291 285 262 279 282 289 286 282 281 281 287 284 277 280 279 277 279 281 278 277 283 281 282 283 283 280 281 279 277 280 285 283 286 288 290 291 293
301 302 299 290 285 286 288 290 285 271 261 276 280 278 279 280 279 280 280 282 281 278 278 277 282 278 277 278 281 280 280 281 282 281 275 278 278 277 281 283 284 287 289 290 292
300 300 294 289 281 288 288 283 272 266 275 273 275 278 278 275 276 277 276 273 271 266 269 274 276 278 277 275 279 276 274 263 264 268 270 278 276 279 284 285 286 286 288 290 292
299 295 292 289 287 286 283 277 265 264 271 279 277 277 274 274 274 274 276 271 274 271 266 267 266 273 276 275 273 273 276 264 259 264 268 276 272 276 281 284 285 287 288 289 291
294 285 284 287 286 285 280 266 263 270 276 275 275 272 271 275 272 271 272 272 273 273 261 264 267 274 277 276 275 271 270 276 264 265 267 272 277 282 280 280 282 283 285 287 288
282 282 282 287 284 283 275 270 270 278 276 277 272 273 267 270 268 269 270 273 272 275 275 269 261 273 275 276 276 274 277 267 266 261 260 270 273 270 274 277 279 280 281 283 284
280 278 283 285 282 277 266 265 277 278 277 275 272 272 271 269 269 266 268 274 273 273 275 272 266 267 274 270 271 272 269 269 265 266 263 261 267 275 275 278 278 280 281 283 283
279 273 284 283 273 258 261 268 279 275 276 276 275 274 272 271 269 269 269 273 277 274 268 273 264 263 267 271 274 274 269 269 258 259 265 265 265 279 277 278 279 279 281 283 284
275 273 282 280 266 259 268 275 276 275 275 275 273 274 273 272 262 269 269 275 276 275 270 270 262 253 260 265 270 268 271 271 267 263 262 258 264 277 276 277 278 277 281 282 283
274 269 273 274 274 272 264 267 268 277 275 276 275 275 273 270 272 262 269 275 277 274 280 278 269 260 257 261 265 265 268 268 262 261 263 265 267 271 273 275 276 277 279 282 282
273 268 272 262 267 272 272 269 266 267 275 275 273 273 272 262 268 263 268 272 275 277 276 270 259 264 266 268 268 268 268 269 266 266 263 266 266 270 273 275 276 277 278 281 281
271 270 271 267 274 272 271 270 270 271 272 271 271 273 273 264 270 263 270 271 271 273 272 272 260 262 262 266 268 266 268 269 269 269 269 268 268 276 278 278 276 277 277 278 279
278 280 274 271 271 267 268 272 273 274 275 276 274 273 272 274 275 276 276 275 275 272 270 271 267 258 256 261 258 255 262 267 269 270 269 266 271 275 275 275 276 275 277 278 280
Wind_Speed
23 23 23 23 22 21 21 21 21 20 19 18 17 15 14 13 11 4 10 7 8 10 8 6 1 3 3 2 4 3 3 3 5 4 5 4 6 5 3 3 3 4 2 2 13
23 23 23 22 22 22 22 22 22 20 18 15 15 14 13 11 2 12 5 14 11 11 5 7 5 3 4 6 3 3 3 6 5 3 4 5 1 5 6 5 3 3 3 6 16
23 23 24 23 23 23 23 22 22 19 16 15 13 11 11 6 5 5 13 18 13 6 1 0 1 2 1 3 4 3 4 2 4 5 4 4 6 4 4 5 5 3 1 8 11
24 23 23 22 23 23 24 22 18 16 15 13 12 11 9 1 5 5 19 19 11 4 3 2 1 4 3 3 3 2 8 4 7 4 6 4 6 6 3 8 3 2 3 9 11
25 24 24 24 24 24 23 19 16 15 13 12 11 8 4 8 5 9 19 15 6 3 3 3 3 1 2 1 1 4 3 5 7 9 7 6 8 5 9 14 9 6 4 10 14
26 26 26 26 26 26 24 18 16 15 13 11 12 9 7 18 8 10 10 9 7 5 2 3 2 1 1 3 0 2 4 7 7 6 5 7 7 5 13 6 6 6 9 8 13
27 27 27 27 26 28 25 18 16 14 10 11 11 3 22 7 7 9 9 5 4 4 4 1 2 3 2 3 3 4 5 5 3 3 5 2 6 7 19 5 9 8 8 7 10
27 26 26 26 25 27 26 15 14 11 9 9 9 5 8 2 7 14 12 5 6 2 2 4 2 1 2 4 4 3 2 4 4 4 2 3 9 8 9 6 10 10 6 7 8
27 25 26 25 22 25 20 11 12 7 11 11 9 7 7 12 20 12 7 8 7 5 3 1 2 4 7 5 4 7 3 5 8 5 8 5 7 8 19 14 14 9 9 7 11
27 26 26 25 22 27 16 3 8 14 9 3 9 7 10 10 8 10 13 7 5 8 5 8 6 6 6 7 3 5 4 3 6 6 15 18 18 17 13 12 16 10 13 11 11
27 26 25 23 21 27 12 6 10 10 13 6 1 4 6 13 3 21 16 9 7 7 6 7 11 8 10 5 5 5 3 6 8 9 5 8 16 13 16 14 16 13 13 14 14
27 26 24 21 13 22 7 10 3 2 3 4 1 1 3 5 6 22 16 8 9 8 9 7 10 7 7 5 6 6 6 6 7 6 8 14 22 16 16 14 13 15 14 14 16
27 24 24 18 5 8 11 6 5 3 3 5 4 6 6 8 6 15 14 7 7 9 8 7 4 7 6 8 13 5 6 9 9 9 9 10 10 3 4 0 15 18 16 18 18
27 22 21 13 8 3 5 6 4 1 6 14 10 8 11 4 6 5 9 4 9 7 6 4 6 7 8 7 10 4 12 8 9 9 5 9 11 3 4 13 19 19 19 18 21
25 19 16 18 2 5 6 8 3 3 7 13 9 6 9 11 7 15 10 9 5 6 6 4 8 8 9 9 8 4 16 13 12 6 4 2 5 7 13 18 21 20 20 20 18
23 15 11 6 4 2 6 5 3 11 4 7 7 10 7 7 9 7 9 9 3 5 6 3 5 6 5 10 3 15 9 6 3 3 3 5 4 4 7 8 15 17 18 20 22
20 9 7 3 5 8 5 4 9 9 6 9 6 7 4 8 7 10 7 18 9 8 10 8 4 2 7 7 5 19 6 6 8 1 4 4 5 5 9 14 13 15 15 16 19
15 7 5 4 5 3 3 8 11 4 3 3 5 6 6 11 5 9 4 5 8 5 3 6 8 9 11 3 5 7 4 5 5 3 6 11 6 7 13 14 17 17 18 20 21
6 4 3 9 6 1 7 10 7 5 2 6 4 5 5 5 4 6 6 3 5 7 5 3 6 4 7 6 3 9 5 5 3 6 6 6 3 4 20 20 23 25 25 23 24
3 3 4 14 6 5 10 5 2 1 2 1 3 4 4 7 7 6 5 3 5 5 1 2 5 3 6 6 8 3 6 6 5 7 7 3 4 6 17 19 19 21 22 22 22
5 5 5 13 5 10 6 4 2 1 1 2 1 2 2 3 3 2 3 1 3 6 4 2 4 7 5 5 4 5 3 4 2 0 4 6 5 4 4 10 13 15 17 18 20
3 5 5 7 9 2 3 5 1 1 2 1 2 1 1 1 1 2 2 3 1 2 2 1 4 5 5 5 4 2 2 4 6 7 4 6 13 8 13 10 10 12 12 15 14
4 1 5 4 6 3 4 2 0 1 1 1 2 1 1 2 3 3 2 2 1 2 1 2 2 5 11 8 4 1 3 6 1 0 11 4 12 11 27 15 11 13 9 13 15
4 4 6 7 1 6 4 1 1 1 1 2 2 2 2 1 3 4 2 3 3 5 9 7 5 8 8 8 5 12 8 8 5 3 11 15 27 21 21 12 15 12 12 11 12
4 1 4 2 4 3 3 4 1 1 1 2 0 5 5 2 2 4 3 4 6 9 2 6 6 4 7 12 15 18 17 18 13 16 10 18 18 25 20 13 12 10 10 10 12
4 5 3 2 1 3 1 5 6 3 4 3 4 3 5 7 8 7 6 3 6 4 5 4 5 1 7 13 16 16 17 17 17 19 17 20 20 18 9 9 8 11 11 10 9
1 1 5 2 2 4 4 6 7 6 4 5 6 2 5 12 8 11 10 9 9 7 6 5 3 3 7 4 6 8 12 14 6 7 8 9 10 10 9 7 9 8 13 11 10
Wind_Direction
12 8 4 1 357 355 351 347 346 341 337 333 332 331 332 348 337 57 47 321 325 333 310 262 83 353 75 324 84 107 72 240 254 179 256 348 3 308 305 286 296 209 174 312 143
13 8 4 0 356 351 348 345 341 337 331 327 325 325 330 340 54 59 345 334 333 339 11 26 13 36 37 338 74 103 135 233 218 240 290 303 310 317 345 341 269 307 31 126 153
15 10 4 359 355 349 346 344 339 338 339 331 332 329 325 330 78 339 343 339 331 343 286 291 332 36 113 126 329 58 241 283 270 266 296 289 310 318 316 293 227 291 262 169 172
16 11 5 360 354 350 346 345 342 341 355 349 349 345 336 96 70 293 337 333 332 329 348 28 68 132 167 198 162 200 234 283 273 321 333 292 306 295 216 247 173 268 254 183 190
13 11 6 359 354 352 351 350 345 345 359 346 347 351 46 49 30 317 329 328 338 13 54 35 68 20 208 299 195 198 261 282 294 306 273 290 258 247 267 263 263 268 214 189 201
10 7 4 358 351 353 354 352 352 355 351 345 357 341 76 58 310 325 333 339 358 352 10 76 123 143 263 271 249 305 250 276 280 246 257 260 272 121 258 266 269 236 241 217 203
7 4 3 358 351 352 355 352 350 2 28 6 357 45 65 34 332 326 341 300 338 323 343 10 169 140 197 274 357 282 304 314 261 314 269 306 304 222 261 336 284 265 263 252 225
5 3 2 358 350 352 347 348 352 358 11 0 357 55 88 36 332 1 340 326 341 18 288 314 309 83 144 307 346 288 87 358 333 1 314 71 286 286 350 357 312 314 317 295 272
4 1 2 358 350 348 342 334 355 48 14 17 36 80 6 332 4 335 357 319 312 340 42 97 71 61 16 355 9 18 4 3 323 25 352 38 293 293 314 324 313 309 308 297 292
4 360 2 1 359 351 354 42 18 28 354 12 40 40 4 330 316 328 346 346 356 338 23 33 45 66 29 24 0 318 327 303 270 307 311 299 282 286 291 293 293 286 290 285 276
3 358 360 3 12 5 7 17 18 4 35 59 2 95 305 319 20 357 349 339 7 40 23 6 65 40 334 333 293 275 250 263 268 268 295 260 275 275 287 286 283 272 268 278 268
3 357 357 360 28 24 37 66 45 270 13 6 340 345 313 335 348 356 359 40 31 26 349 41 62 350 322 5 349 344 301 306 290 340 328 296 291 284 257 273 279 300 312 305 312
2 358 355 354 37 37 70 70 303 266 82 7 0 16 338 356 45 350 5 329 30 25 11 68 45 333 25 23 13 334 2 336 305 318 276 309 286 72 280 273 34 17 4 359 353
1 358 359 354 49 336 57 343 333 227 75 346 351 10 351 333 47 346 351 13 11 14 357 55 354 8 34 21 356 17 338 309 299 330 312 44 294 23 305 33 21 11 7 356 350
1 0 15 34 129 47 313 324 316 64 60 331 329 309 345 63 303 354 338 9 33 330 42 324 358 1 36 348 328 329 311 283 272 249 313 317 274 296 31 11 357 355 354 356 354
1 4 17 27 38 120 310 307 53 42 275 342 343 350 10 21 2 307 8 29 85 6 15 345 296 57 309 308 338 339 318 297 169 233 233 15 317 50 24 358 341 350 354 353 354
360 20 42 53 309 320 323 49 40 86 325 327 338 352 24 353 4 5 33 41 29 19 5 332 13 28 2 342 332 354 14 353 3 5 224 1 346 32 30 5 343 330 345 354 357
358 35 17 102 299 307 63 48 66 242 273 342 336 331 35 6 17 354 36 42 25 42 53 14 336 20 343 25 289 328 6 133 280 303 295 330 251 54 8 354 343 355 353 351 357
23 360 30 337 338 69 71 50 183 217 314 340 332 16 352 12 19 20 36 50 38 26 105 41 282 350 333 333 35 309 31 183 226 250 250 226 172 302 7 13 5 1 0 356 359
60 44 344 335 340 57 68 121 182 44 344 347 48 49 343 341 24 35 17 341 350 31 40 258 309 343 301 4 18 98 5 18 351 325 309 295 62 5 3 10 5 360 2 354 354
54 51 275 340 43 47 95 183 131 101 45 35 184 33 75 346 335 336 303 41 349 336 5 120 115 299 339 37 322 19 47 27 143 6 305 325 283 155 23 10 357 352 355 355 349
67 48 317 350 53 28 90 183 47 69 10 81 97 111 167 333 310 292 262 200 135 112 22 309 154 283 277 282 256 127 124 135 123 288 242 248 247 232 18 6 355 332 338 334 349
65 260 327 34 89 357 309 116 93 126 88 137 146 153 178 199 0 254 288 256 1 90 139 261 315 352 345 357 1 52 330 286 245 11 236 237 268 341 330 347 339 336 323 330 340
74 34 345 37 66 117 126 256 335 333 209 213 175 143 117 284 191 237 248 277 191 194 267 211 202 171 202 220 237 290 271 250 156 242 277 251 284 298 299 324 326 318 323 321 328
32 237 176 327 350 95 126 149 121 352 225 200 298 188 174 217 269 242 258 246 281 271 250 143 203 220 242 263 272 266 271 269 251 240 246 280 283 284 288 287 295 293 317 315 323
112 123 354 157 180 103 333 210 177 256 166 250 200 224 188 196 192 229 235 245 242 295 177 188 255 158 274 237 258 269 263 256 255 262 252 260 267 270 251 268 284 297 313 306 311
223 54 102 243 101 93 223 187 200 164 250 219 198 190 251 249 236 238 236 246 237 224 206 218 188 74 267 334 329 303 235 238 226 222 217 249 257 291 285 261 311 290 303 297 291